KAITUO 1B
1 40912U 15049P   18009.08277631  .00001022  00000-0  52950-4 0  9997
2 40912  97.4509  18.7056 0014510 199.9951 233.9836 15.18357866127524
TIANWANG 1C (TW-1C)
1 40926U 15051B   18009.55122679  .00005663  00000-0  11550-3 0  9993
2 40926  97.2050  52.7319 0011765 130.2936 335.0445 15.46540412128778
TIANWANG 1B (TW-1B)
1 40927U 15051C   18009.10945825  .00005307  00000-0  11280-3 0  9996
2 40927  97.2136  52.2108 0011409 142.5635 234.6882 15.45365282128635
TIANWANG 1A (TW-1A)
1 40928U 15051D   18008.57513840  .00002358  00000-0  65641-4 0  9999
2 40928  97.2046  45.6442 0012215 169.0334 317.4055 15.37745577128248
LAPAN A2
1 40931U 15052B   18008.58464589  .00000709  00000-0  96603-5 0  9991
2 40931   5.9957 208.2195 0013349 273.9902  85.8747 14.76561895123370
LQSAT
1 40958U 15057A   18009.41621440  .00000025  00000-0  11578-4 0  9997
2 40958  97.9590  85.9147 0019348 123.1178 237.1889 14.73010992121478
CHUBUSAT 2
1 41338U 16012B   18008.06829773  .00000288  00000-0  15784-4 0  9995
2 41338  31.0027 250.8957 0014027 287.3132  72.5968 14.99901322103775
CHUBUSAT 3
1 41339U 16012C   18009.03391774  .00000270  00000-0  14303-4 0  9996
2 41339  31.0088 243.5862 0013780 303.5725  56.3591 15.00094502103904
OUFTI-1
1 41458U 16025C   18009.07292379  .00001270  00000-0  71262-4 0  9995
2 41458  98.1593  63.2880 0170175 321.3856  37.5304 15.04136080 93513
E-STAR-2
1 41459U 16025D   18008.38819989  .00001045  00000-0  59722-4 0  9998
2 41459  98.1601  62.4637 0170997 324.3610  34.6290 15.03908557 93403
AAUSAT 4
1 41460U 16025E   18009.10650160  .00000563  00000-0  34189-4 0  9999
2 41460  98.1524  63.5004 0163228 318.9159  39.9893 15.05132630 93551
NUSAT 1
1 41557U 16033B   18009.17592832  .00001220  00000-0  47483-4 0  9995
2 41557  97.4486  93.6325 0013980   6.7674 353.3751 15.27898333 89879
BEESAT 4
1 41619U 16040W   18009.21630606  .00001305  00000-0  60756-4 0  9991
2 41619  97.4375  74.4252 0013276  70.8814 289.3858 15.21645401 73911
PRATHAM
1 41783U 16059A   18008.42859491  .00000048  00000-0  18764-4 0  9995
2 41783  98.1412  72.3845 0032605 235.8060 124.0050 14.62892959 68606
ALSAT 1N
1 41789U 16059G   18009.40837393  .00000084  00000-0  25262-4 0  9998
2 41789  98.1415  74.2556 0027237 225.2738 134.6252 14.64117887 68787
NAYIF 1
1 42017U 17008BX  18008.56398333 +.00001351 +00000-0 +58885-4 0  9995
2 42017 097.4703 074.4414 0005686 208.5085 151.5841 15.23925004049754
LILACSAT-1
1 42725U 98067ME  18009.12648700  .00017482  00000-0  19724-3 0  9994
2 42725  51.6382  85.0012 0005521 357.2980   2.7983 15.62592031 35595
MAX VALIER SAT
1 42778U 17036P   18009.38134990  .00000904  00000-0  43911-4 0  9995
2 42778  97.4264  71.5695 0011174 264.8095  95.1865 15.20965255 30369
